Location: Newark
(25.0000°N, 73.5000°E)
Time: 19:09:48
(UTC+00:00)

S-56A Canister/Altair - All Passes

Search period start: 28 February 2021 00:00
Search period end: 10 March 2021 00:00
Orbit: 632 x 2501 km, 38.9° (Epoch: 28 February)

Date Brightness Start Highest point End Pass type
(mag) Time Alt. Az. Time Alt. Az. Time Alt. Az.
28 Feb - 05:25:04 10° SSE 05:29:37 13° SE 05:34:34 10° ESE daylight
28 Feb - 07:22:01 10° SSW 07:33:53 53° SE 07:48:19 10° ENE daylight
28 Feb - 09:26:30 10° WSW 09:40:35 73° NNW 09:55:33 10° ENE daylight
28 Feb - 11:35:01 10° W 11:49:25 47° N 12:02:06 10° ENE daylight
28 Feb - 13:44:38 10° WNW 13:58:33 49° NNE 14:08:52 10° E visible
28 Feb - 15:52:50 10° WNW 16:05:39 88° NNE 16:14:01 10° ESE visible
28 Feb - 18:01:46 10° WNW 18:09:27 25° SW 18:15:10 10° S visible
01 Mar - 06:49:28 10° SSW 07:00:33 46° SE 07:14:24 10° ENE daylight
01 Mar - 08:53:14 10° WSW 09:06:49 78° NNW 09:22:04 10° ENE daylight
01 Mar - 11:01:09 10° W 11:15:30 49° NNW 11:28:49 10° ENE daylight
01 Mar - 13:10:39 10° WNW 13:24:52 48° N 13:35:50 10° E visible
01 Mar - 15:18:57 10° WNW 15:32:27 81° NNE 15:41:27 10° ESE visible
01 Mar - 17:27:35 10° WNW 17:36:47 32° SW 17:43:21 10° S visible
02 Mar - 06:17:05 10° SSW 06:27:19 40° SE 06:40:21 10° ENE daylight
02 Mar - 08:20:06 10° WSW 08:33:07 84° NNW 08:48:30 10° ENE daylight
02 Mar - 10:27:25 10° W 10:41:35 51° NNW 10:55:27 10° ENE daylight
02 Mar - 12:36:43 10° WNW 12:51:05 47° N 13:02:42 10° ENE daylight
02 Mar - 14:45:06 10° WNW 14:59:09 74° NNE 15:08:46 10° ESE visible
02 Mar - 16:53:28 10° WNW 17:04:02 39° SW 17:11:22 10° SSE visible
03 Mar - 05:44:52 10° S 05:54:11 34° SE 06:06:10 10° ENE daylight
03 Mar - 07:47:07 10° SW 07:59:28 90° SSE 08:14:52 10° ENE daylight
03 Mar - 09:53:47 10° W 10:07:39 53° NNW 10:21:59 10° ENE daylight
03 Mar - 12:02:49 10° WNW 12:17:14 47° N 12:29:29 10° ENE daylight
03 Mar - 14:11:14 10° WNW 14:25:42 69° NNE 14:36:00 10° ESE visible
03 Mar - 16:19:25 10° WNW 16:31:10 47° SW 16:39:13 10° SSE visible
04 Mar - 05:12:51 10° S 05:21:10 28° SE 05:31:48 10° ENE daylight
04 Mar - 07:14:15 10° SW 07:25:56 83° SE 07:41:08 10° ENE daylight
04 Mar - 09:20:18 10° W 09:33:44 55° NNW 09:48:27 10° ENE daylight
04 Mar - 11:28:59 10° WNW 11:43:19 46° N 11:56:09 10° ENE daylight
04 Mar - 13:37:24 10° WNW 13:52:10 65° NNE 14:03:07 10° ESE visible
04 Mar - 15:45:25 10° WNW 15:58:12 56° SW 16:06:56 10° SSE visible
04 Mar - 18:00:19 10° WSW 18:01:13 10° WSW 18:02:06 10° SW visible
05 Mar - 04:41:05 10° S 04:48:14 22° SE 04:57:13 10° E daylight
05 Mar - 06:41:32 10° SW 06:52:30 75° SE 07:07:20 10° ENE daylight
05 Mar - 08:46:56 10° W 08:59:53 58° NNW 09:14:51 10° ENE daylight
05 Mar - 10:55:13 10° WNW 11:09:22 46° N 11:22:43 10° ENE daylight
05 Mar - 13:03:35 10° WNW 13:18:32 61° NNE 13:30:08 10° E daylight
05 Mar - 15:11:28 10° WNW 15:25:06 65° SW 15:34:33 10° SE visible
05 Mar - 17:23:09 10° W 17:28:31 15° SW 17:33:05 10° SSW visible
06 Mar - 04:09:41 10° SSE 04:15:24 17° SE 04:22:18 10° E daylight
06 Mar - 06:08:55 10° SW 06:19:11 67° SE 06:33:28 10° ENE daylight
06 Mar - 08:13:42 10° W 08:26:05 61° NNW 08:41:10 10° ENE daylight
06 Mar - 10:21:34 10° WNW 10:35:23 46° N 10:49:10 10° ENE daylight
06 Mar - 12:29:49 10° WNW 12:44:48 58° NNE 12:57:01 10° E daylight
06 Mar - 14:37:33 10° WNW 14:51:53 73° SW 15:02:02 10° SE visible
06 Mar - 16:48:01 10° W 16:55:46 20° SW 17:01:59 10° SSW visible
07 Mar - 03:39:04 10° SE 03:42:37 12° ESE 03:46:37 10° ESE daylight
07 Mar - 05:36:27 10° SW 05:45:58 59° SE 05:59:32 10° ENE daylight
07 Mar - 07:40:36 10° WSW 07:52:21 65° NNW 08:07:25 10° ENE daylight
07 Mar - 09:48:00 10° WNW 10:01:24 47° N 10:15:33 10° ENE daylight
07 Mar - 11:56:06 10° WNW 12:10:59 56° NNE 12:23:47 10° E daylight
07 Mar - 14:03:42 10° WNW 14:18:33 81° SW 14:29:24 10° SE visible
07 Mar - 16:13:20 10° W 16:22:56 25° SW 16:30:23 10° S visible
08 Mar - 05:04:05 10° SSW 05:12:53 51° SE 05:25:32 10° ENE daylight
08 Mar - 07:07:37 10° WSW 07:18:43 69° NNW 07:33:38 10° ENE daylight
08 Mar - 09:14:32 10° WNW 09:27:27 47° N 09:41:49 10° ENE daylight
08 Mar - 11:22:27 10° WNW 11:37:06 53° NNE 11:50:24 10° E daylight
08 Mar - 13:29:53 10° WNW 13:45:06 88° SW 13:56:39 10° SE visible
08 Mar - 15:38:53 10° WNW 15:50:01 31° SW 15:58:30 10° S visible
09 Mar - 04:31:52 10° SSW 04:39:56 43° SE 04:51:29 10° ENE daylight
09 Mar - 06:34:45 10° WSW 06:45:11 74° NNW 06:59:49 10° ENE daylight
09 Mar - 08:41:11 10° W 08:53:33 48° N 09:08:02 10° ENE daylight
09 Mar - 10:48:52 10° WNW 11:03:11 51° NNE 11:16:55 10° E daylight
09 Mar - 12:56:10 10° WNW 13:11:33 85° NNE 13:23:46 10° ESE daylight
09 Mar - 15:04:37 10° WNW 15:16:59 37° SW 15:26:24 10° SSE visible
